Miscellaneous Local Product
Issued by NWS Hastings, NE

Home | Current Version | Previous Version | Graphics & Text | Print | Product List | Glossary On
Versions: 1 2 3 4 5 6 7 8 9 10 11 12 13 14 15 16 17 18 19 20 21 22 23 24 25 26 27 28 29 30 31 32 33 34 35 36 37 38 39 40 41 42 43 44 45 46 47 48 49 50
000
AXUS43 KGID 212102
MISGRI

GID CWA HOURLY WEATHER ROUNDUP
NATIONAL WEATHER SERVICE HASTINGS NE
400 PM CDT MON MAY 21 2018

NOTE: "FAIR" INDICATES FEW OR NO CLOUDS BELOW 12,000 FEET WITH NO
SIGNIFICANT WEATHER AND/OR OBSTRUCTIONS TO VISIBILITY.

...SOUTH CENTRAL NEBRASKA...

CITY           SKY/WX    TMP DP  RH WIND       PRES   REMARKS
GRAND ISLAND   SUNNY     73  56  54 VRB7G16   30.01F
KEARNEY        MOSUNNY   72  59  63 S9G17     30.00F
HASTINGS       SUNNY     73  56  54 SW7       30.00F
ORD            CLOUDY    71  56  58 S9G20     29.98F
YORK           SUNNY     72  57  60 SW8       30.01F
AURORA         SUNNY     72  55  55 SW6       30.00F
LEXINGTON      CLOUDY    73  60  63 S13G20    29.98F
HOLDREGE       MOSUNNY   73  58  60 S13G21    29.99F
HEBRON         SUNNY     78  53  42 SW9       30.00F

...NEBRASKA PANHANDLE...

CITY           SKY/WX    TMP DP  RH WIND       PRES   REMARKS
CHADRON        SUNNY     75  55  49 S9        29.91F
ALLIANCE       SUNNY     69  54  58 S8        29.96F
SCOTTSBLUFF    SUNNY     73  55  53 E9        29.95F
SIDNEY         SUNNY     73  54  51 SE6       29.98F

...WESTERN AND NORTH CENTRAL NEBRASKA...

CITY           SKY/WX    TMP DP  RH WIND       PRES   REMARKS
VALENTINE      PTSUNNY   75  51  43 S10       29.95F
AINSWORTH      CLOUDY    71  54  53 S9        29.97F
ONEILL         MOSUNNY   74  52  47 SW8       30.00S
BROKEN BOW     PTSUNNY   70  57  63 S14G21    29.99F
IMPERIAL       MOSUNNY   79  55  43 S13       29.95F
NORTH PLATTE   MOSUNNY   75  59  57 SW15G22   29.96F
MCCOOK         MOSUNNY   76  58  53 S18G29    29.95F

...EASTERN NEBRASKA...

CITY           SKY/WX    TMP DP  RH WIND       PRES   REMARKS
NORFOLK        SUNNY     74  50  42 SW14      29.98F
SO SIOUX CITY  CLOUDY    67  57  70 SE5       30.00F
TEKAMAH        PTSUNNY   69  58  67 S5        30.00F
COLUMBUS       SUNNY     73  55  53 S10       30.01F
ALBION         MOSUNNY   73  57  57 SW10      30.00F
OMAHA EPPLEY   MOSUNNY   72  57  59 VRB6      30.01S
OFFUTT AFB     MOSUNNY   72  58  60 W7        30.00F
MILLARD        PTSUNNY   74  59  60 W6        30.00F
LINCOLN        SUNNY     77  53  43 W9        30.01F
NEBRASKA CITY  SUNNY     74  58  55 W8        30.01F
BEATRICE       SUNNY     77  56  47 SW5       30.00F
FALLS CITY     SUNNY     77  57  50 SW9       30.00F

...NORTHERN KANSAS...

CITY           SKY/WX    TMP DP  RH WIND       PRES   REMARKS
GOODLAND       PTSUNNY   78  56  46 S20G31    29.94F
HILL CITY      SUNNY     79  59  50 S16G25    29.97F
NORTON         PTCLDY    79  55  44 S15G21    29.96F
PHILLIPSBURG   SUNNY     81  55  41 S13G22    29.98F
SMITH CENTER     N/A     75  54  46 S15       30.00F
HAYS           MOSUNNY   80  59  48 S16G24    29.99F
RUSSELL        SUNNY     78  60  53 S9        29.98F
CONCORDIA      CLOUDY    75  57  53 SW10      30.01F
SALINA         SUNNY     80  57  45 SW7       30.01F
TOPEKA         SUNNY     75  60  59 N6        30.02F



USA.gov is the U.S. government's official web portal to all federal, state and local government web resources and services.